| time (UTC) | temp C | wind direction | speed KPH | gust KPH | rain 1hr cm | rain 24hr cm | rain mn cm | humidity % | barometer mb |
| 20260502205006 | 16 | 288 | 4.8 | 22.5 | 0.00 | 0.00 | 0.00 | 33 | 1016.2 |
| 20260502204523 | 16 | 247 | 12.9 | 22.5 | 0.00 | 0.00 | 0.00 | 36 | 1016.3 |
| 20260502204006 | 16 | 286 | 6.4 | 19.3 | 0.00 | 0.00 | 0.00 | 31 | 1016.3 |
| 20260502203506 | 16 | 231 | 11.3 | 19.3 | 0.00 | 0.00 | 0.00 | 36 | 1016.5 |
| 20260502203026 | 16 | 265 | 11.3 | 19.3 | 0.00 | 0.00 | 0.00 | 36 | 1016.5 |
| 20260502202507 | 16 | 282 | 6.4 | 16.1 | 0.00 | 0.00 | 0.00 | 35 | 1016.6 |
| 20260502202007 | 16 | 265 | 6.4 | 17.7 | 0.00 | 0.00 | 0.00 | 38 | 1016.7 |
| 20260502201526 | 15 | 232 | 3.2 | 17.7 | 0.00 | 0.00 | 0.00 | 34 | 1016.7 |
| 20260502201010 | 16 | 264 | 8.0 | 19.3 | 0.00 | 0.00 | 0.00 | 39 | 1016.8 |
| 20260502200515 | 16 | 249 | 8.0 | 19.3 | 0.00 | 0.00 | 0.00 | 36 | 1016.8 |
| 20260502200028 | 16 | 280 | 3.2 | 12.9 | 0.00 | 0.00 | 0.00 | 40 | 1016.9 |
| 20260502195505 | 16 | 205 | 3.2 | 12.9 | 0.00 | 0.00 | 0.00 | 37 | 1016.9 |
| 20260502195006 | 15 | 331 | 0.0 | 19.3 | 0.00 | 0.00 | 0.00 | 33 | 1016.9 |
| 20260502194520 | 15 | 246 | 11.3 | 19.3 | 0.00 | 0.00 | 0.00 | 34 | 1017.1 |
| 20260502194005 | 15 | 255 | 9.7 | 17.7 | 0.00 | 0.00 | 0.00 | 34 | 1017.1 |
| 20260502193508 | 15 | 281 | 8.0 | 17.7 | 0.00 | 0.00 | 0.00 | 38 | 1017.2 |
| 20260502193025 | 15 | 241 | 8.0 | 14.5 | 0.00 | 0.00 | 0.00 | 37 | 1017.2 |
| 20260502192508 | 15 | 271 | 3.2 | 19.3 | 0.00 | 0.00 | 0.00 | 38 | 1017.3 |
| 20260502192014 | 15 | 224 | 9.7 | 19.3 | 0.00 | 0.00 | 0.00 | 35 | 1017.5 |
| 20260502191531 | 15 | 20 | 3.2 | 19.3 | 0.00 | 0.00 | 0.00 | 34 | 1017.5 |
| 20260502191007 | 15 | 300 | 9.7 | 19.3 | 0.00 | 0.00 | 0.00 | 35 | 1017.6 |
| 20260502190511 | 15 | 295 | 11.3 | 19.3 | 0.00 | 0.00 | 0.00 | 32 | 1017.6 |
| 20260502190026 | 15 | 246 | 11.3 | 19.3 | 0.00 | 0.00 | 0.00 | 32 | 1017.8 |
| 20260502185512 | 15 | 277 | 6.4 | 22.5 | 0.00 | 0.00 | 0.00 | 35 | 1017.8 |
| 20260502185013 | 15 | 250 | 12.9 | 22.5 | 0.00 | 0.00 | 0.00 | 40 | 1018.0 |
| 20260502184533 | 14 | 260 | 9.7 | 24.1 | 0.00 | 0.00 | 0.00 | 32 | 1018.0 |
| 20260502184006 | 14 | 280 | 14.5 | 24.1 | 0.00 | 0.00 | 0.00 | 32 | 1018.2 |
| 20260502183506 | 14 | 302 | 3.2 | 16.1 | 0.00 | 0.00 | 0.00 | 37 | 1018.2 |
| 20260502183020 | 14 | 265 | 9.7 | 16.1 | 0.00 | 0.00 | 0.00 | 34 | 1018.3 |
| 20260502182509 | 14 | 226 | 8.0 | 20.9 | 0.00 | 0.00 | 0.00 | 34 | 1018.4 |
| 20260502182015 | 13 | 236 | 9.7 | 20.9 | 0.00 | 0.00 | 0.00 | 37 | 1018.4 |
| 20260502181529 | 13 | 263 | 9.7 | 16.1 | 0.00 | 0.00 | 0.00 | 35 | 1018.5 |
| 20260502181007 | 13 | 206 | 6.4 | 16.1 | 0.00 | 0.00 | 0.00 | 35 | 1018.6 |
| 20260502180510 | 13 | 255 | 6.4 | 20.9 | 0.00 | 0.00 | 0.00 | 34 | 1018.7 |
| 20260502170511 | 12 | 262 | 8.0 | 16.1 | 0.00 | 0.00 | 0.00 | 37 | 1019.5 |
| 20260502164010 | 12 | 284 | 9.7 | 24.1 | 0.00 | 0.00 | 0.00 | 37 | 1019.7 |
| 20260502163513 | 12 | 321 | 12.9 | 24.1 | 0.00 | 0.00 | 0.00 | 37 | 1019.6 |
| 20260502163034 | 12 | 264 | 6.4 | 14.5 | 0.00 | 0.00 | 0.00 | 39 | 1019.7 |
| 20260502162510 | 12 | 233 | 4.8 | 17.7 | 0.00 | 0.00 | 0.00 | 43 | 1019.8 |
| 20260502162014 | 12 | 280 | 9.7 | 20.9 | 0.00 | 0.00 | 0.00 | 40 | 1019.9 |
| 20260502161529 | 11 | 285 | 12.9 | 20.9 | 0.00 | 0.00 | 0.00 | 40 | 1020.0 |
| 20260502161010 | 11 | 296 | 4.8 | 17.7 | 0.00 | 0.00 | 0.00 | 38 | 1020.0 |
| 20260502160513 | 11 | 303 | 6.4 | 17.7 | 0.00 | 0.00 | 0.00 | 40 | 1020.1 |
| 20260502152014 | 11 | 297 | 8.0 | 19.3 | 0.00 | 0.00 | 0.00 | 45 | 1020.3 |
| 20260502151529 | 11 | 302 | 8.0 | 19.3 | 0.00 | 0.00 | 0.00 | 45 | 1020.3 |
| 20260502151015 | 11 | 285 | 4.8 | 17.7 | 0.00 | 0.00 | 0.00 | 45 | 1020.4 |
| 20260502150511 | 11 | 283 | 11.3 | 17.7 | 0.00 | 0.00 | 0.00 | 45 | 1020.4 |
| 20260502130505 | 5 | 279 | 3.2 | 6.4 | 0.00 | 0.00 | 0.00 | 69 | 1020.8 |
| 20260502123507 | 2 | 263 | 0.0 | 1.6 | 0.00 | 0.00 | 0.00 | 77 | 1020.7 |
| 20260502123023 | 2 | 283 | 0.0 | 1.6 | 0.00 | 0.00 | 0.00 | 78 | 1020.7 |
| 20260502122508 | 1 | 283 | 0.0 | 1.6 | 0.00 | 0.00 | 0.00 | 81 | 1020.6 |
| 20260502122009 | 1 | 282 | 0.0 | 1.6 | 0.00 | 0.00 | 0.00 | 82 | 1020.7 |
| 20260502121538 | 1 | 282 | 1.6 | 1.6 | 0.00 | 0.00 | 0.00 | 83 | 1020.6 |
| 20260502121009 | 0 | 282 | 0.0 | 1.6 | 0.00 | 0.00 | 0.00 | 86 | 1020.6 |
| 20260502120508 | 0 | 206 | 0.0 | 0.0 | 0.00 | 0.00 | 0.00 | 89 | 1020.6 |
| 20260502115504 | 0 | 206 | 0.0 | 0.0 | 0.00 | 0.00 | 0.00 | 90 | 1020.5 |
| 20260502115006 | -1 | 206 | 0.0 | 0.0 | 0.00 | 0.00 | 0.00 | 90 | 1020.5 |
| 20260502114516 | -1 | 206 | 0.0 | 0.0 | 0.00 | 0.00 | 0.00 | 90 | 1020.4 |
| 20260502114008 | -1 | 206 | 0.0 | 0.0 | 0.00 | 0.00 | 0.00 | 91 | 1020.3 |
| 20260502113509 | -1 | 206 | 0.0 | 0.0 | 0.00 | 0.00 | 0.00 | 91 | 1020.3 |
| 20260502113022 | -1 | 206 | 0.0 | 0.0 | 0.00 | 0.00 | 0.00 | 91 | 1020.3 |
| 20260502112507 | -1 | 206 | 0.0 | 0.0 | 0.00 | 0.00 | 0.00 | 91 | 1020.3 |
| 20260502112007 | -2 | 206 | 0.0 | 0.0 | 0.00 | 0.00 | 0.00 | 91 | 1020.4 |
| 20260502111504 | -2 | 206 | 0.0 | 0.0 | 0.00 | 0.00 | 0.00 | 92 | 1020.3 |
| 20260502111003 | -2 | 206 | 0.0 | 0.0 | 0.00 | 0.00 | 0.00 | 91 | 1020.2 |
| 20260502110502 | -2 | 206 | 0.0 | 0.0 | 0.00 | 0.00 | 0.00 | 92 | 1020.2 |
| 20260502110010 | -1 | 206 | 0.0 | 0.0 | 0.00 | 0.00 | 0.00 | 92 | 1020.1 |
| 20260502105503 | -1 | 206 | 0.0 | 0.0 | 0.00 | 0.00 | 0.00 | 92 | 1020.2 |
| 20260502105003 | -1 | 206 | 0.0 | 0.0 | 0.00 | 0.00 | 0.00 | 93 | 1020.3 |
| 20260502104534 | -1 | 206 | 0.0 | 0.0 | 0.00 | 0.00 | 0.00 | 92 | 1020.3 |
| 20260502104003 | -1 | 206 | 0.0 | 0.0 | 0.00 | 0.00 | 0.00 | 92 | 1020.2 |
| 20260502103506 | -2 | 206 | 0.0 | 0.0 | 0.00 | 0.00 | 0.00 | 92 | 1020.1 |
| 20260502103023 | -2 | 206 | 0.0 | 0.0 | 0.00 | 0.00 | 0.00 | 92 | 1020.2 |
| 20260502102506 | -1 | 206 | 0.0 | 0.0 | 0.00 | 0.00 | 0.00 | 92 | 1020.2 |
| 20260502102010 | -1 | 206 | 0.0 | 0.0 | 0.00 | 0.00 | 0.00 | 92 | 1020.3 |
| 20260502101520 | -1 | 206 | 0.0 | 0.0 | 0.00 | 0.00 | 0.00 | 92 | 1020.4 |
| 20260502101006 | -1 | 206 | 0.0 | 0.0 | 0.00 | 0.00 | 0.00 | 92 | 1020.3 |
| 20260502100510 | -2 | 206 | 0.0 | 0.0 | 0.00 | 0.00 | 0.00 | 91 | 1020.2 |
| 20260502091521 | -1 | 205 | 0.0 | 0.0 | 0.00 | 0.00 | 0.00 | 91 | 1020.2 |
| 20260502091009 | -1 | 205 | 0.0 | 0.0 | 0.00 | 0.00 | 0.00 | 90 | 1020.2 |
| 20260502090506 | -1 | 205 | 0.0 | 0.0 | 0.00 | 0.00 | 0.00 | 89 | 1020.1 |
| 20260502071522 | 0 | 281 | 0.0 | 1.6 | 0.00 | 0.00 | 0.00 | 84 | 1020.3 |
| 20260502071004 | 0 | 281 | 0.0 | 1.6 | 0.00 | 0.00 | 0.00 | 84 | 1020.4 |
| 20260502070505 | 0 | 281 | 0.0 | 1.6 | 0.00 | 0.00 | 0.00 | 85 | 1020.4 |
| 20260502070016 | 0 | 281 | 0.0 | 1.6 | 0.00 | 0.00 | 0.00 | 83 | 1020.3 |
| 20260502065506 | 0 | 281 | 0.0 | 0.0 | 0.00 | 0.00 | 0.00 | 81 | 1020.3 |
| 20260502065009 | 0 | 281 | 0.0 | 0.0 | 0.00 | 0.00 | 0.00 | 81 | 1020.3 |
| 20260502064521 | 0 | 281 | 0.0 | 0.0 | 0.00 | 0.00 | 0.00 | 80 | 1020.4 |
| 20260502064008 | 0 | 281 | 0.0 | 0.0 | 0.00 | 0.00 | 0.00 | 79 | 1020.5 |
| 20260502063506 | 0 | 281 | 0.0 | 0.0 | 0.00 | 0.00 | 0.00 | 79 | 1020.5 |
| 20260502063024 | 1 | 281 | 0.0 | 0.0 | 0.00 | 0.03 | 0.00 | 78 | 1020.5 |
| 20260502062509 | 1 | 281 | 0.0 | 0.0 | 0.00 | 0.03 | 0.00 | 78 | 1020.5 |
| 20260502062010 | 1 | 281 | 0.0 | 0.0 | 0.00 | 0.03 | 0.00 | 77 | 1020.5 |
| 20260502061528 | 1 | 281 | 0.0 | 1.6 | 0.00 | 0.03 | 0.00 | 76 | 1020.5 |
| 20260502061009 | 1 | 281 | 0.0 | 1.6 | 0.00 | 0.03 | 0.00 | 75 | 1020.5 |
| 20260502060511 | 1 | 281 | 0.0 | 1.6 | 0.00 | 0.03 | 0.00 | 76 | 1020.5 |
| 20260502060030 | 1 | 281 | 0.0 | 1.6 | 0.00 | 0.03 | 0.00 | 78 | 1020.5 |
| 20260502055503 | 1 | 281 | 0.0 | 1.6 | 0.00 | 0.03 | 0.00 | 79 | 1020.4 |
| 20260502055010 | 1 | 281 | 0.0 | 1.6 | 0.00 | 0.03 | 0.00 | 76 | 1020.4 |
| 20260502054519 | 2 | 281 | 0.0 | 0.0 | 0.00 | 0.03 | 0.00 | 75 | 1020.3 |
| 20260502054004 | 2 | 281 | 0.0 | 0.0 | 0.00 | 0.03 | 0.00 | 73 | 1020.2 |
| 20260502053508 | 2 | 281 | 0.0 | 4.8 | 0.00 | 0.03 | 0.00 | 73 | 1020.3 |
| 20260502053022 | 2 | 281 | 0.0 | 4.8 | 0.00 | 0.03 | 0.00 | 74 | 1020.3 |
| 20260502052510 | 2 | 281 | 0.0 | 1.6 | 0.00 | 0.03 | 0.00 | 71 | 1020.3 |
| 20260502052009 | 3 | 281 | 0.0 | 3.2 | 0.00 | 0.03 | 0.00 | 70 | 1020.3 |
| 20260502051546 | 3 | 281 | 0.0 | 3.2 | 0.00 | 0.03 | 0.00 | 68 | 1020.2 |
| 20260502051014 | 3 | 307 | 1.6 | 3.2 | 0.00 | 0.03 | 0.00 | 62 | 1020.2 |
| 20260502050509 | 4 | 307 | 0.0 | 1.6 | 0.00 | 0.03 | 0.00 | 62 | 1020.3 |
| 20260502050027 | 4 | 307 | 0.0 | 1.6 | 0.00 | 0.03 | 0.00 | 61 | 1020.2 |
| 20260502045507 | 5 | 307 | 0.0 | 1.6 | 0.00 | 0.03 | 0.03 | 58 | 1020.2 |
| 20260502045011 | 5 | 307 | 0.0 | 4.8 | 0.00 | 0.03 | 0.03 | 57 | 1020.1 |
| 20260502044529 | 5 | 307 | 1.6 | 4.8 | 0.00 | 0.03 | 0.03 | 57 | 1020.1 |
| 20260502044013 | 5 | 309 | 1.6 | 6.4 | 0.00 | 0.03 | 0.03 | 57 | 1020.0 |
| 20260502043507 | 5 | 309 | 3.2 | 6.4 | 0.00 | 0.03 | 0.03 | 57 | 1020.1 |
| 20260502043020 | 5 | 299 | 4.8 | 6.4 | 0.00 | 0.03 | 0.03 | 58 | 1020.0 |
| 20260502042508 | 5 | 290 | 1.6 | 3.2 | 0.00 | 0.03 | 0.03 | 61 | 1020.0 |
| 20260502042010 | 4 | 281 | 0.0 | 1.6 | 0.00 | 0.03 | 0.03 | 61 | 1020.0 |
| 20260502041522 | 5 | 281 | 0.0 | 3.2 | 0.00 | 0.03 | 0.03 | 62 | 1020.0 |
| 20260502041008 | 5 | 277 | 1.6 | 4.8 | 0.00 | 0.03 | 0.03 | 62 | 1020.0 |
| 20260502040509 | 5 | 302 | 1.6 | 4.8 | 0.00 | 0.03 | 0.03 | 60 | 1019.9 |
| 20260502040026 | 5 | 302 | 3.2 | 4.8 | 0.00 | 0.03 | 0.03 | 62 | 1019.9 |
| 20260502035509 | 5 | 12 | 3.2 | 3.2 | 0.00 | 0.03 | 0.03 | 63 | 1019.8 |
| 20260502035010 | 5 | 359 | 3.2 | 3.2 | 0.00 | 0.03 | 0.03 | 63 | 1019.9 |
| 20260502034539 | 5 | 324 | 1.6 | 3.2 | 0.00 | 0.03 | 0.03 | 64 | 1019.9 |
| 20260502034010 | 5 | 321 | 1.6 | 3.2 | 0.00 | 0.03 | 0.03 | 63 | 1019.9 |
| 20260502033514 | 5 | 322 | 3.2 | 3.2 | 0.00 | 0.03 | 0.03 | 62 | 1019.9 |
| 20260502033042 | 6 | 336 | 1.6 | 3.2 | 0.00 | 0.03 | 0.03 | 62 | 1019.9 |
| 20260502032510 | 6 | 336 | 1.6 | 3.2 | 0.00 | 0.03 | 0.03 | 61 | 1019.9 |
| 20260502032008 | 6 | 324 | 1.6 | 6.4 | 0.00 | 0.03 | 0.03 | 59 | 1019.9 |
| 20260502031521 | 6 | 329 | 3.2 | 6.4 | 0.00 | 0.03 | 0.03 | 57 | 1019.9 |
| 20260502031009 | 6 | 315 | 3.2 | 4.8 | 0.00 | 0.03 | 0.03 | 61 | 1019.9 |
| 20260502030510 | 6 | 322 | 3.2 | 3.2 | 0.00 | 0.03 | 0.03 | 60 | 1019.8 |
| 20260502030023 | 6 | 321 | 1.6 | 3.2 | 0.00 | 0.03 | 0.03 | 59 | 1019.8 |
| 20260502025509 | 6 | 317 | 1.6 | 3.2 | 0.00 | 0.03 | 0.03 | 58 | 1019.8 |
| 20260502025010 | 6 | 317 | 3.2 | 3.2 | 0.00 | 0.03 | 0.03 | 59 | 1019.8 |
| 20260502024530 | 6 | 317 | 1.6 | 3.2 | 0.00 | 0.03 | 0.03 | 58 | 1019.6 |
| 20260502024010 | 6 | 317 | 1.6 | 3.2 | 0.00 | 0.03 | 0.03 | 58 | 1019.7 |
| 20260502023512 | 6 | 317 | 1.6 | 4.8 | 0.00 | 0.03 | 0.03 | 56 | 1019.6 |
| 20260502023030 | 6 | 312 | 3.2 | 4.8 | 0.00 | 0.03 | 0.03 | 56 | 1019.5 |
| 20260502022504 | 6 | 311 | 3.2 | 4.8 | 0.00 | 0.03 | 0.03 | 55 | 1019.5 |
| 20260502022007 | 6 | 313 | 3.2 | 4.8 | 0.00 | 0.03 | 0.03 | 55 | 1019.5 |
| 20260502021518 | 6 | 313 | 3.2 | 4.8 | 0.00 | 0.03 | 0.03 | 55 | 1019.4 |
| 20260502021006 | 7 | 313 | 3.2 | 4.8 | 0.00 | 0.03 | 0.03 | 54 | 1019.3 |
| 20260502020507 | 7 | 308 | 3.2 | 4.8 | 0.00 | 0.03 | 0.03 | 53 | 1019.3 |
| 20260502020023 | 7 | 311 | 3.2 | 4.8 | 0.00 | 0.03 | 0.03 | 52 | 1019.2 |
| 20260502015509 | 6 | 316 | 3.2 | 4.8 | 0.00 | 0.03 | 0.03 | 51 | 1019.2 |
| 20260502015012 | 6 | 318 | 3.2 | 4.8 | 0.00 | 0.03 | 0.03 | 53 | 1019.1 |
| 20260502014507 | 6 | 316 | 3.2 | 4.8 | 0.00 | 0.03 | 0.03 | 54 | 1019.0 |
| 20260502014002 | 7 | 328 | 3.2 | 4.8 | 0.00 | 0.03 | 0.03 | 52 | 1018.9 |
| 20260502013502 | 7 | 333 | 3.2 | 4.8 | 0.00 | 0.03 | 0.03 | 51 | 1018.9 |
| 20260502013008 | 7 | 345 | 3.2 | 8.0 | 0.00 | 0.03 | 0.03 | 50 | 1018.9 |
| 20260502012502 | 7 | 354 | 3.2 | 9.7 | 0.00 | 0.03 | 0.03 | 49 | 1018.8 |
| 20260502012009 | 7 | 359 | 6.4 | 9.7 | 0.00 | 0.03 | 0.03 | 47 | 1018.8 |
| 20260502011518 | 8 | 351 | 4.8 | 6.4 | 0.00 | 0.03 | 0.03 | 48 | 1018.8 |
| 20260502011006 | 8 | 2 | 4.8 | 9.7 | 0.00 | 0.03 | 0.03 | 47 | 1018.7 |
| 20260502010506 | 8 | 340 | 4.8 | 9.7 | 0.00 | 0.03 | 0.03 | 45 | 1018.7 |
| 20260502010021 | 8 | 352 | 4.8 | 9.7 | 0.00 | 0.03 | 0.03 | 46 | 1018.6 |
| 20260502005508 | 8 | 2 | 6.4 | 14.5 | 0.00 | 0.03 | 0.03 | 45 | 1018.6 |
| 20260502005007 | 9 | 360 | 8.0 | 16.1 | 0.00 | 0.03 | 0.03 | 44 | 1018.5 |
| 20260502004522 | 9 | 345 | 11.3 | 17.7 | 0.00 | 0.03 | 0.03 | 41 | 1018.5 |
| 20260502004011 | 9 | 326 | 12.9 | 17.7 | 0.00 | 0.03 | 0.03 | 40 | 1018.3 |
| 20260502003511 | 10 | 335 | 11.3 | 17.7 | 0.00 | 0.03 | 0.03 | 40 | 1018.4 |
| 20260502003012 | 10 | 349 | 14.5 | 20.9 | 0.00 | 0.03 | 0.03 | 39 | 1018.3 |
| 20260502002502 | 10 | 345 | 14.5 | 20.9 | 0.00 | 0.03 | 0.03 | 39 | 1018.3 |
| 20260502002008 | 10 | 8 | 14.5 | 20.9 | 0.00 | 0.03 | 0.03 | 40 | 1018.3 |
| 20260502001512 | 10 | 13 | 12.9 | 17.7 | 0.00 | 0.03 | 0.03 | 40 | 1018.3 |
| 20260502001006 | 10 | 354 | 11.3 | 17.7 | 0.00 | 0.03 | 0.03 | 38 | 1018.2 |
| 20260502000505 | 10 | 3 | 12.9 | 17.7 | 0.00 | 0.03 | 0.03 | 39 | 1018.2 |
| 20260502000015 | 10 | 316 | 11.3 | 17.7 | 0.00 | 0.03 | 0.03 | 38 | 1018.2 |
| 20260501235507 | 10 | 328 | 9.7 | 16.1 | 0.00 | 0.03 | 0.03 | 38 | 1018.2 |
| 20260501235007 | 10 | 323 | 11.3 | 19.3 | 0.00 | 0.03 | 0.03 | 37 | 1018.2 |
| 20260501234524 | 10 | 336 | 12.9 | 19.3 | 0.00 | 0.03 | 0.03 | 36 | 1018.2 |
| 20260501234007 | 10 | 314 | 14.5 | 19.3 | 0.00 | 0.03 | 0.03 | 37 | 1018.2 |
| 20260501233511 | 10 | 322 | 11.3 | 16.1 | 0.00 | 0.03 | 0.03 | 38 | 1018.2 |
| 20260501233028 | 10 | 350 | 9.7 | 20.9 | 0.00 | 0.03 | 0.03 | 38 | 1018.2 |
| 20260501232509 | 10 | 349 | 12.9 | 20.9 | 0.00 | 0.03 | 0.03 | 38 | 1018.2 |
| 20260501232011 | 11 | 342 | 17.7 | 24.1 | 0.00 | 0.03 | 0.03 | 36 | 1018.1 |
| 20260501231538 | 11 | 323 | 16.1 | 24.1 | 0.00 | 0.03 | 0.03 | 37 | 1018.1 |
| 20260501231003 | 11 | 328 | 14.5 | 22.5 | 0.00 | 0.03 | 0.03 | 37 | 1018.1 |
| 20260501230503 | 11 | 330 | 12.9 | 22.5 | 0.00 | 0.03 | 0.03 | 36 | 1018.1 |
| 20260501230012 | 11 | 338 | 11.3 | 25.7 | 0.00 | 0.03 | 0.03 | 36 | 1018.1 |
| 20260501225506 | 11 | 2 | 17.7 | 25.7 | 0.00 | 0.03 | 0.03 | 35 | 1018.1 |
| 20260501225005 | 11 | 306 | 16.1 | 24.1 | 0.00 | 0.03 | 0.03 | 36 | 1018.0 |
| 20260501224520 | 11 | 346 | 14.5 | 22.5 | 0.00 | 0.03 | 0.03 | 38 | 1018.0 |
| 20260501224005 | 10 | 10 | 12.9 | 22.5 | 0.00 | 0.03 | 0.03 | 40 | 1018.0 |
| 20260501223510 | 11 | 35 | 12.9 | 22.5 | 0.00 | 0.03 | 0.03 | 38 | 1018.0 |
| 20260501223021 | 10 | 18 | 12.9 | 20.9 | 0.00 | 0.03 | 0.03 | 39 | 1018.1 |
| 20260501222509 | 10 | 345 | 11.3 | 25.7 | 0.00 | 0.03 | 0.03 | 38 | 1018.1 |
| 20260501222011 | 11 | 4 | 12.9 | 25.7 | 0.00 | 0.03 | 0.03 | 39 | 1018.1 |
| 20260501221525 | 11 | 13 | 14.5 | 20.9 | 0.00 | 0.03 | 0.03 | 39 | 1018.0 |
| 20260501221013 | 11 | 324 | 8.0 | 22.5 | 0.00 | 0.03 | 0.03 | 37 | 1018.0 |
| 20260501220510 | 11 | 341 | 19.3 | 25.7 | 0.00 | 0.03 | 0.03 | 36 | 1017.9 |
| 20260501220027 | 11 | 337 | 16.1 | 25.7 | 0.00 | 0.03 | 0.03 | 38 | 1017.9 |
| 20260501215503 | 11 | 342 | 14.5 | 22.5 | 0.00 | 0.03 | 0.03 | 36 | 1017.9 |
| 20260501215003 | 11 | 328 | 11.3 | 22.5 | 0.00 | 0.03 | 0.03 | 36 | 1017.9 |
| 20260501214523 | 11 | 354 | 11.3 | 24.1 | 0.00 | 0.03 | 0.03 | 34 | 1018.0 |
| 20260501214006 | 11 | 325 | 9.7 | 24.1 | 0.00 | 0.03 | 0.03 | 37 | 1017.9 |
| 20260501213505 | 11 | 348 | 17.7 | 27.4 | 0.00 | 0.03 | 0.03 | 39 | 1017.9 |
| 20260501213019 | 11 | 13 | 20.9 | 27.4 | 0.00 | 0.03 | 0.03 | 36 | 1017.9 |
| 20260501212505 | 11 | 30 | 16.1 | 24.1 | 0.00 | 0.03 | 0.03 | 38 | 1017.9 |
| 20260501212006 | 11 | 333 | 9.7 | 20.9 | 0.00 | 0.03 | 0.03 | 36 | 1017.8 |
| 20260501211526 | 11 | 20 | 11.3 | 17.7 | 0.00 | 0.03 | 0.03 | 38 | 1017.9 |
| 20260501211006 | 10 | 13 | 9.7 | 17.7 | 0.00 | 0.03 | 0.03 | 39 | 1017.9 |
| 20260501210512 | 10 | 307 | 6.4 | 22.5 | 0.00 | 0.03 | 0.03 | 38 | 1017.9 |
| 20260501210025 | 10 | 360 | 11.3 | 22.5 | 0.00 | 0.03 | 0.03 | 39 | 1018.0 |
| 20260501205510 | 10 | 1 | 16.1 | 22.5 | 0.00 | 0.03 | 0.03 | 39 | 1017.9 |